Theta_e
308 308 307 305 304 303 301 300 298 291 293 295 292 295 296 296 300 295 295 304 304 305 308 310 309 306 306 306 307 309 309 310 310 311 312 312 312 312
307 304 302 299 298 298 296 294 293 292 286 291 291 292 295 296 298 294 294 301 302 303 305 307 309 306 305 304 304 305 307 306 307 307 307 308 309 308
302 299 297 295 293 292 292 291 290 290 286 288 290 291 291 291 293 293 295 294 295 301 304 306 307 306 305 304 303 303 304 304 304 305 305 306 307 307
297 295 295 296 291 291 289 290 290 289 288 285 287 288 289 290 291 290 293 296 293 299 303 305 306 306 305 304 303 301 301 301 302 304 304 304 305 306
295 293 292 292 291 290 289 290 290 292 288 286 286 287 288 289 290 290 290 290 295 301 301 303 303 305 304 303 302 300 301 301 301 300 300 301 302 303
293 292 293 293 292 292 292 290 290 288 287 286 285 286 286 288 288 287 289 292 291 295 297 299 301 302 302 301 300 301 299 300 299 298 299 299 299 300
291 291 294 299 302 299 293 291 289 286 286 285 284 285 285 287 287 286 286 289 291 290 290 293 294 295 295 297 298 300 298 298 298 298 298 298 298 299
286 286 290 293 294 299 299 300 294 287 286 285 285 284 284 285 286 288 285 287 285 290 291 291 294 293 294 294 299 298 297 297 297 297 298 298 298 298
284 284 288 291 290 289 292 294 293 297 297 288 284 285 285 287 285 286 288 286 286 291 290 289 293 290 293 294 297 298 297 296 296 297 298 298 297 297
284 284 283 285 289 288 287 287 287 288 290 293 288 287 287 289 288 288 286 285 287 289 288 287 292 290 292 294 296 297 297 296 297 297 297 297 297 296
285 285 284 284 291 290 286 286 286 287 295 296 295 294 293 293 294 289 287 286 285 287 286 285 287 289 291 293 294 297 296 296 296 296 296 297 296 297
284 284 292 288 290 290 284 284 284 285 287 286 286 288 289 290 294 290 288 285 285 283 289 287 287 289 287 291 293 294 294 295 295 295 296 296 297 297
285 285 285 292 291 291 289 286 286 287 287 285 285 287 288 289 289 290 289 284 285 284 290 287 287 288 289 289 292 293 293 293 293 294 295 296 296 296
285 284 286 292 292 291 289 290 290 288 284 285 285 285 286 287 288 289 289 287 289 287 289 287 287 288 288 288 288 291 292 293 293 293 294 296 296 296
287 292 292 291 291 289 291 291 289 285 285 284 283 284 285 287 288 289 289 288 288 288 291 289 288 289 290 288 287 289 288 290 292 292 293 294 294 295
292 290 291 290 291 289 287 287 286 286 283 281 282 284 286 287 287 288 286 286 286 286 289 290 289 291 289 289 289 288 289 287 291 291 292 295 295 295
288 286 284 283 283 283 284 284 284 285 284 283 283 284 285 286 286 287 286 285 284 284 285 287 289 291 291 290 288 288 288 288 290 290 291 292 293 294
285 283 282 282 282 282 281 281 282 284 283 283 282 283 283 284 285 286 285 284 283 284 284 285 286 287 288 290 293 288 288 288 290 292 293 291 290 293
284 282 282 282 282 282 280 279 279 280 281 282 281 281 282 283 284 284 284 283 283 283 284 285 285 285 282 282 288 294 288 289 291 291 292 292 290 291
282 283 282 282 282 280 280 278 279 279 280 280 280 280 281 282 283 283 282 282 283 283 283 284 284 284 283 282 284 288 291 289 291 289 290 292 292 294
283 283 282 282 281 280 279 278 278 278 279 279 279 279 280 281 282 282 282 283 283 283 281 281 285 285 287 289 286 286 289 293 295 292 290 289 289 289
283 282 282 281 280 279 278 277 276 277 278 278 277 278 279 280 281 281 281 281 282 282 281 283 285 285 285 284 284 285 288 291 295 296 296 294 289 286
283 282 281 280 279 279 277 276 276 276 276 277 277 277 278 279 281 281 281 282 282 282 281 281 283 283 283 283 284 285 287 289 291 291 295 296 296 297
Wind_Speed
8 9 8 5 6 4 5 3 3 1 2 3 4 6 5 5 10 7 8 19 19 20 18 16 16 20 22 22 22 22 18 16 16 17 16 17 17 18
7 11 8 4 6 5 4 4 3 3 1 1 3 3 4 6 9 7 8 17 19 20 20 20 18 18 21 21 23 22 18 16 15 16 16 16 14 15
9 10 9 6 5 5 4 3 4 3 3 4 2 4 4 6 8 6 7 7 8 19 22 22 18 17 20 21 22 25 23 15 17 17 19 18 15 17
9 9 8 6 6 6 3 5 5 4 3 2 3 3 3 4 6 7 8 8 8 15 22 21 19 19 20 20 20 22 18 17 16 15 14 15 15 18
9 9 7 6 6 3 3 4 3 3 3 1 3 3 3 3 6 6 6 7 7 18 17 18 21 21 20 19 22 19 16 15 12 16 18 16 17 17
10 7 7 7 7 4 5 4 3 4 3 2 3 4 2 5 3 4 10 8 9 10 11 15 19 20 19 22 22 22 17 15 17 17 14 16 15 16
8 8 8 11 15 11 2 5 4 3 3 3 3 3 3 6 8 5 5 7 10 3 4 9 9 9 9 16 16 21 19 18 20 19 17 16 15 14
9 7 7 11 10 14 14 14 6 3 4 2 3 3 5 4 4 7 5 8 7 4 10 10 9 8 11 10 19 19 22 22 20 20 20 17 15 13
9 7 8 6 8 5 11 12 12 13 10 2 2 3 4 6 5 7 9 7 7 11 8 10 9 8 12 9 14 21 23 22 21 21 20 18 16 13
9 8 8 7 7 7 8 8 8 7 7 4 3 4 3 7 6 4 5 6 6 7 2 11 10 11 10 8 11 24 23 22 22 22 22 20 18 16
7 7 7 7 9 12 8 8 8 8 9 14 13 13 13 16 14 6 9 9 10 9 1 3 6 13 8 7 8 20 22 22 23 24 21 20 19 16
6 5 9 7 8 10 7 6 7 6 6 7 7 9 9 11 18 10 8 8 8 6 10 7 8 12 8 2 12 11 9 19 22 20 21 21 17 6
5 4 5 10 12 12 9 6 5 4 8 6 5 7 8 9 9 10 10 3 9 6 13 4 12 11 6 11 7 9 11 11 10 12 18 16 17 11
5 3 3 15 14 12 8 11 11 7 4 6 6 8 8 9 11 10 10 8 9 8 11 4 9 12 9 8 8 11 12 10 9 11 10 13 12 13
3 9 17 14 12 9 12 12 8 5 6 7 7 7 6 8 10 9 8 11 9 8 9 8 9 11 9 7 9 12 14 10 11 10 10 9 10 9
12 10 10 10 10 6 5 8 6 5 4 3 5 5 6 8 9 9 9 11 9 10 12 14 12 12 10 8 8 9 11 8 12 11 11 7 9 9
9 7 6 5 4 4 6 6 5 5 7 6 7 8 8 8 10 9 10 9 10 13 12 13 15 14 11 8 4 8 10 9 11 10 9 8 10 11
7 5 3 3 5 6 5 4 5 9 7 7 7 7 9 9 10 10 10 10 11 12 12 12 13 13 11 2 7 7 9 9 10 10 8 5 9 11
6 4 4 6 5 5 2 3 5 5 5 6 7 8 8 9 11 10 11 11 12 12 12 12 12 13 12 12 6 13 11 10 10 9 7 7 8 9
4 5 6 5 4 3 3 4 5 6 7 6 7 8 8 8 9 10 11 12 12 11 12 12 13 13 12 10 7 7 17 10 9 10 7 5 7 11
6 6 5 4 4 3 4 5 5 5 6 6 7 7 8 7 9 9 10 14 15 11 13 13 12 15 9 8 7 8 10 19 17 12 10 4 6 10
6 5 4 4 4 5 5 4 4 6 7 6 6 6 7 7 8 9 10 10 11 11 11 10 12 11 9 10 10 9 9 9 15 19 21 19 9 8
5 5 4 5 4 4 5 5 5 5 5 5 5 6 6 7 8 8 8 9 10 12 13 12 11 10 10 9 9 8 12 10 7 9 10 17 18 13
Wind_Direction
86 81 77 62 61 56 57 67 139 65 287 328 352 11 360 354 351 349 335 345 347 345 337 346 341 350 356 351 343 338 337 338 338 332 321 309 311 314
85 82 73 56 59 54 67 47 50 133 49 292 322 320 330 341 340 338 319 339 339 341 339 336 327 340 341 342 347 337 322 325 325 324 320 312 313 319
81 82 80 73 67 50 54 56 58 73 99 311 285 300 317 324 323 312 316 318 328 338 336 333 323 323 328 330 333 337 324 327 323 315 306 296 295 314
90 88 75 75 64 55 55 53 56 58 93 346 278 294 295 305 290 306 322 328 330 331 333 328 316 312 317 326 330 338 340 334 330 323 340 320 310 310
93 87 87 79 60 47 47 50 51 51 51 38 295 293 281 298 317 311 316 313 328 332 324 322 320 309 313 327 339 339 338 334 331 333 320 316 310 307
81 80 84 78 72 43 44 53 63 51 21 349 295 288 290 299 292 307 338 339 325 319 313 316 315 311 321 332 338 339 339 337 334 321 316 317 312 303
79 74 66 72 67 61 74 63 59 37 360 350 314 304 319 342 346 318 327 321 324 270 312 328 326 316 322 337 329 337 340 330 331 324 322 314 306 301
90 70 67 55 45 54 54 55 66 47 357 354 315 330 314 313 306 329 320 342 339 296 330 326 332 324 331 327 333 345 337 333 330 324 318 316 308 300
90 85 73 53 42 26 36 42 35 36 47 178 316 328 314 327 315 331 336 328 306 308 327 331 335 327 332 325 334 339 336 329 328 328 328 323 318 302
92 89 86 64 34 39 36 35 24 12 7 17 40 325 324 328 332 301 286 284 294 303 12 328 327 334 326 320 327 337 333 329 333 331 328 324 318 309
89 87 87 70 48 40 46 35 25 7 1 13 14 357 345 343 354 342 350 343 339 331 10 292 316 328 321 322 325 332 332 333 329 325 324 326 320 309
77 77 69 75 64 51 57 40 31 348 357 355 357 348 343 344 355 1 343 345 341 325 339 340 341 344 322 304 328 330 336 331 332 326 328 330 330 323
99 68 46 51 48 43 51 43 33 352 357 359 345 356 352 352 351 344 338 341 341 324 326 355 336 336 312 312 319 324 337 331 329 330 333 331 327 331
95 79 47 75 69 55 46 39 34 18 9 11 12 3 355 350 337 331 324 328 330 304 315 343 325 337 323 316 334 330 335 334 330 336 339 333 336 337
99 85 76 77 76 52 40 35 29 29 22 20 11 355 343 326 320 333 337 343 323 321 336 328 334 330 336 325 316 329 336 336 341 342 343 341 345 344
76 71 80 76 72 60 31 27 26 18 16 3 359 336 338 348 346 342 347 345 345 346 346 343 347 343 334 324 316 324 338 339 337 344 338 346 356 3
78 63 54 48 54 40 38 23 360 10 18 9 5 360 360 352 349 343 351 344 351 348 346 347 351 347 332 308 312 336 334 336 340 335 338 360 10 11
68 84 75 74 69 56 38 4 8 22 15 8 360 2 2 354 347 349 355 353 350 347 345 344 348 347 349 346 18 341 342 335 335 342 348 3 16 17
91 89 82 65 64 60 37 20 22 7 358 8 7 0 357 351 351 351 353 350 351 349 347 346 352 355 350 355 320 0 346 339 346 356 2 19 21 17
86 83 73 73 73 75 46 32 24 10 13 7 6 360 351 347 350 352 352 347 348 347 347 351 354 359 347 337 324 327 342 346 2 8 5 6 21 14
83 75 79 92 86 71 51 37 31 12 9 6 1 357 346 346 348 347 346 346 349 352 350 351 344 342 330 325 351 353 347 358 13 27 16 6 19 30
95 100 91 82 74 59 48 28 32 22 13 6 354 350 342 340 345 340 343 343 353 351 347 337 346 349 355 356 351 349 352 357 10 24 41 47 35 47
108 108 105 87 76 59 45 30 30 15 7 352 348 344 339 339 338 332 339 339 351 352 352 347 350 352 358 355 350 350 358 5 1 19 32 10 24 35